This demonstration page uses our WeatherBlox Daily Observations layout. Learn more.

39.92423, -83.80882

Hourly Observations for July 4, 2018

Temp ( °F °C ) Dew Point ( °F °C ) Humidity (%) Winds ( mph kmh ) Pressure ( in mb ) Visibility ( mi km ) Precip ( " mm )
12:56 am 00:56 Clear 71 21.7 70 21.1 96 96 E 3 6 30.22 1023 10 16.0934 0 0
1:56 am 01:56 Clear 71 21.7 70 21.1 96 96 NNE 3 6 30.22 1024 10 16.0934 0 0
2:56 am 02:56 Clear 70 21.1 69 20.6 97 97 NE 3 6 30.22 1024 10 16.0934 0 0
3:56 am 03:56 Clear 70 21.1 69 20.6 97 97 SE 3 6 30.22 1023 10 16.0934 0 0
4:56 am 04:56 Clear 69 20.6 68 20 96 96 ESE 3 6 30.23 1024 10 16.0934 0 0
5:56 am 05:56 Clear 70 21.1 68 20 93 93 ENE 3 6 30.24 1024 10 16.0934 0 0
6:56 am 06:56 Sunny 71 21.7 69 20.6 94 94 NNW 3 6 30.25 1025 10 16.0934 0 0
7:56 am 07:56 Sunny 75 23.9 71 21.7 88 88 NE 5 7 30.26 1025 10 16.0934 0 0
8:56 am 08:56 Sunny 78 25.6 73 22.8 85 85 ESE 5 7 30.27 1025 10 16.0934 0 0
9:56 am 09:56 Sunny 82 27.8 75 23.9 79 79 Calm 30.27 1025 10 16.0934 0 0
10:56 am 10:56 Sunny 85 29.4 76 24.4 75 75 Calm 30.27 1025 10 16.0934 0 0
11:56 am 11:56 Sunny 87 30.6 75 23.9 67 67 Calm 30.27 1025 10 16.0934 0 0
12:56 pm 12:56 Sunny 89 31.7 77 25 68 68 W 5 7 30.27 1025 10 16.0934 0 0
1:56 pm 13:56 Sunny 90 32.2 75 23.9 62 62 Calm 30.25 1025 10 16.0934 0 0
2:56 pm 14:56 Sunny 89 31.7 73 22.8 59 59 VRB 3 6 30.24 1024 10 16.0934 0 0
3:23 pm 15:23 Partly Cloudy with Thunderstorms 88 31 75 24 66 66 NW 8 13 30.21 1023 10 16.0934 0 0
3:56 pm 15:56 Partly Cloudy with Light Thunderstorms 79 26.1 74 23.3 85 85 W 12 19 30.25 1024 10 16.0934 0.01 0.254
4:40 pm 16:40 Sunny 81 27 70 21 70 70 N 7 11 30.24 1024 10 16.0934 0 0.0254
4:56 pm 16:56 Sunny 81 27.2 70 21.1 69 69 NNW 3 6 30.24 1024 10 16.0934 0 0.0254
5:56 pm 17:56 Sunny 82 27.8 72 22.2 72 72 N 5 7 30.22 1023 10 16.0934 0 0
6:56 pm 18:56 Sunny 81 27.2 75 23.9 82 82 ENE 5 7 30.24 1024 10 16.0934 0 0
7:56 pm 19:56 Sunny 81 27.2 75 23.9 82 82 Calm 30.24 1024 10 16.0934 0 0
8:56 pm 20:56 Sunny 80 26.7 75 23.9 85 85 E 3 6 30.23 1024 10 16.0934 0 0
9:56 pm 21:56 Clear 77 25 74 23.3 90 90 SE 3 6 30.24 1024 10 16.0934 0 0
10:56 pm 22:56 Clear 76 24.4 74 23.3 94 94 Calm 30.25 1025 10 16.0934 0 0
11:56 pm 23:56 Clear 75 23.9 74 23.3 96 96 Calm 30.26 1025 7 11.26538 0 0

Powered by AerisWeather